STARLINK-35289, 65809

Orbit data source: Space-Track

STARLINK-35289, 65809 is a payload satellite owned by SpaceX/Seattle (US) in SSO that was launched on Fri, 26 Sep 2025 UTC via an FALCON 9 launch vehicle from the Air Force Western Test Range (AFWTR). Payload-class satellites include a variety of spacecraft equipped with specific instruments for various scientific and technological missions. These include communications satellites like Starlink; space stations such as the ISS; scientific satellites like the Hubble; Earth observation satellites from companies like Planet Labs, Umbra, and HawkEye 360; GPS; miniature CubeSats for education and research; and military/defense satellites.

Loading next visibility...
Identifier
65809, 2025-218U
Orbit
SSO
Country
Flag of USUS
Related business
Manufacturer
SpaceX/Seattle
Mission
Operational Commercial Communications
Bus & Motor
STARLINK V2MO, Unknown motor
Mass
575 kg wet, ~530 kg dry
Launch date (UTC)
2025-09-26 (2 months ago)
Launch vehicle
FALCON 9
Launch site
Air Force Western Test Range (AFWTR)
Object type
Payload
Rocket body
Debris
Shape & HBR
Box + 2 Pan, 17.7 m
Radar Cross Section
36.964 m²

Expand to show TLE details & history
Last TLE update: 1 day ago

TLE from 1 day ago
0 STARLINK-35289
1 65809U 25218U   25338.60377872  .00011036  00000-0  76776-3 0  9994
2 65809  97.6033 199.2528 0002800  79.6983 280.4559 15.05652554 10660
Epoch: 2025-12-04T14:29Z
TLE epoch observation values (Epoch: 2025-12-04T14:29:26.481Z)
Latitude
-0.00005°
Longitude
-91.76538°
Altitude
552.217 km
Speed
7.586 km/s
True Right ascension
13h 17m 00s
True Declination
0° 00' 00"
Sunlit
Object was in daylight at epoch
Visualization orbit readout
Latitude
Unknown
Longitude
Unknown
Altitude
Unknown
Speed
Unknown
Apparent Right ascension
Unknown
Apparent Declination
Unknown
Sunlit
N/A
Visualization observer readout
Local Sidereal Time
12:29:31
Azimuth
Unknown
Elevation
Unknown
Doppler factor
Unknown
Orbital elements
Apogee altitude
548.436 km
Perigee altitude
544.558 km
Semi-major axis
6,924.634 km
Eccentricity
0.00028
Inclination
97.6033°
RAAN
199.2528°
Arg. of periapsis
79.6983°
True anomaly
280.42435°
Mean anomaly
280.4559°
Eccentric anomaly
280.44012°
Mean motion
3.76659 °/min
Orbital period
95.58 mins
BSTAR
0.00076776
Loading maneuver chart data...
Computing Atmospheric mass density...
Loading historical data...
Loading historical data...
Loading historical data...
Loading historical data...
Loading historical data...
Loading historical data...
Loading historical data...

Documentation

Showing up to 5 results
|